Torna al catalogo

THOR ABLESTAR DEB

AttivoLEO
NORAD 177·DEBRIS·🇺🇸 United States

Lanciato Jun 29, 1961 da Cape Canaveral Space Force Station

Loading…

Prossimi Passaggi (prossime 24 ore)

TLE

AggiornatoSource: Space-Track

Epoca: Sep 7, 2026, 13:02 UTC

1 00177U 61015BB  26250.54320726  .00000238  00000-0  15765-3 0  9992
2 00177  66.6550 352.4226 0103419  30.6219 330.0851 14.14887620352818

Traccia THOR ABLESTAR DEB in tempo reale con AllMySat

Download on the App Store